Location: Colle Santa Colomba
(42.0333°N, 12.5667°E)
Time: 22:04:26
(UTC+00:00)

Cosmos 1932 - Pass Details

Date: 25 October 2021
Orbit: 942 x 987 km, 65.0° (Epoch: 04 December)

Event Time Altitude Azimuth Distance (km) Brightness Sun altitude
Rises 18:01:59 0° 327° (NNW) 3,618 8.0 -20.9°
Reaches altitude 10° 18:04:32 10° 328° (NNW) 2,673 7.2 -21.3°
Maximum altitude 18:10:47 84° 56° (NE) 962 4.3 -22.5°
Enters shadow 18:13:53 32° 144° (SE) 1,567 5.2 -23.1°
